HIMAWARI 1 AKM, 59985

Orbit data source: Space-Track

HIMAWARI 1 AKM, 59985 is space debris in GEO originally from a launch on Thu, 14 Jul 1977 UTC launched from the Air Force Eastern Test Range (AFETR). Debris objects in space refer to the collection of defunct objects orbiting the Earth. Examples of debris include non-operational satellites, rocket bodies, and fragments generated from explosions, collisions, or faulty payload assembly.

Not visible in the next 10 days
Identifier
59985, 1977-065GQ
Orbit
GEO
Country
Flag of JPJP / JPN
Related business
Manufacturer
Thiokol/TE
Mission
Spacecraft
Bus & Motor
STAR 27, Unknown motor
Mass
Wet unknown, 24 kg dry
Launch date (UTC)
1977-07-14 (49 years ago)
Launch vehicle
Unknown
Launch site
Air Force Eastern Test Range (AFETR)
Object type
Payload
Rocket body
Debris
Shape & HBR
Unknown shape, 8.0 m
Radar Cross Section
Medium (>0.1 m² and <1 m²)

Expand to show TLE details & history
Last TLE update: 2 days ago

TLE from 2 days ago
0 HIMAWARI 1 AKM
1 59985U 77065GQ  26171.00180124  .00000064  00000-0  00000-0 0  9994
2 59985   4.1939 273.3090 0277384 123.4805 239.4613  1.01119131 46479
Epoch: 2026-06-20T00:02Z
TLE epoch observation values (Epoch: 2026-06-20T00:02:35.627Z)
Latitude
Longitude
4.70387°
Altitude
36,167.637 km
Speed
3.038 km/s
True Right ascension
18h 14m 18s
True Declination
0° 00' 00"
Sunlit
Object was in daylight at epoch
Visualization orbit readout
Latitude
Unknown
Longitude
Unknown
Altitude
Unknown
Speed
Unknown
Apparent Right ascension
Unknown
Apparent Declination
Unknown
Sunlit
N/A
Visualization observer readout
Local Sidereal Time
21:39:15
Azimuth
Unknown
Elevation
Unknown
Doppler factor
Unknown
Orbital elements
Apogee altitude
36,714.851 km
Perigee altitude
34,388.713 km
Semi-major axis
41,929.919 km
Eccentricity
0.02774
Inclination
4.1939°
RAAN
273.309°
Arg. of periapsis
123.4805°
True anomaly
236.77204°
Mean anomaly
239.4613°
Eccentric anomaly
238.11186°
Mean motion
0.25279 °/min
Orbital period
1,424.12 mins
BSTAR
0
Loading maneuver chart data...
Computing Atmospheric mass density...

Documentation

Showing up to 5 results
|